Regional Weather Roundup
Issued by NWS

Home | Current Version | Previous Version | Text Only | Print | Product List | Glossary Off
Versions: 1 2 3 4 5 6 7 8 9 10 11 12 13 14 15 16 17 18 19 20 21 22 23 24 25 26 27 28 29 30 31 32 33 34 35 36 37 38 39 40 41 42 43 44 45 46 47 48 49 50

000
ASUS43 KLSX 241207
RWRMO

WEATHER SUMMARY FOR MISSOURI
NATIONAL WEATHER SERVICE SPRINGFIELD MO
700 AM CDT FRI OCT 24 2014

NOTE: "FAIR" INDICATES FEW OR NO CLOUDS BELOW 12,000 FEET WITH NO
       SIGNIFICANT WEATHER AND/OR OBSTRUCTIONS TO VISIBILITY.
       CURRENT SKY AND/OR WEATHER CONDITIONS ARE NOT AVAILABLE FOR
       CHILLICOTHE AND FARMINGTON.

MOZ001>031-035>038-043-044-053-054-241300-
...NORTHERN AND WESTERN MISSOURI...

CITY           SKY/WX    TMP DP  RH WIND       PRES   REMARKS
KANSAS CTY INT FOG       57  57 100 S8        30.05S VSB 1/2
6HR MIN TEMP:  54; 6HR MAX TEMP:  57;

KANSAS C DTWN  FOG       57  54  89 CALM      30.05F VSB 1/2
6HR MIN TEMP:  55; 6HR MAX TEMP:  59;

LEE`S SUMMIT   FOG       55  54  96 S5        30.07R VSB 1
6HR MIN TEMP:  54; 6HR MAX TEMP:  57;

ST JOSEPH      CLOUDY    57  57 100 S7        30.03F FOG
6HR MIN TEMP:  50; 6HR MAX TEMP:  57;

CHILLICOTHE      N/A     57  56  96 S6        30.07S
6HR MIN TEMP:  55; 6HR MAX TEMP:  57;

KIRKSVILLE     FOG       55  55 100 S5        30.06F VSB 1/4
6HR MIN TEMP:  55; 6HR MAX TEMP:  57;


$$
MOZ066>068-077>081-088>096-101>105-241300-
...SOUTHWEST MISSOURI...

CITY           SKY/WX    TMP DP  RH WIND       PRES   REMARKS
SPRINGFIELD    CLEAR     48  46  93 S6        30.10F
6HR MIN TEMP:  47; 6HR MAX TEMP:  53;

JOPLIN         CLEAR     52  50  93 S8        30.10F
6HR MIN TEMP:  50; 6HR MAX TEMP:  52;


$$
MOZ032>034-039>042-045>050-055>058-069>072-241300-
...CENTRAL MISSOURI...

CITY           SKY/WX    TMP DP  RH WIND       PRES   REMARKS
COLUMBIA       FOG       53  53 100 SW6       30.10R VSB 1/2
6HR MIN TEMP:  49; 6HR MAX TEMP:  55;

JEFFERSON CITY CLOUDY    46  45  96 CALM      30.10S FOG
6HR MIN TEMP:  45; 6HR MAX TEMP:  53;

ROLLA          PTCLDY    49  47  93 SW8       30.09F FOG
6HR MIN TEMP:  46; 6HR MAX TEMP:  54;

SEDALIA        CLOUDY    59  56  89 SW6       30.10S FOG
6HR MIN TEMP:  59; 6HR MAX TEMP:  62;

WHITEMAN AFB   CLOUDY    56  55  95 SW7       30.08S
OSAGE BEACH    CLOUDY    57  55  94 CALM      30.11S

$$
MOZ051-052-059>065-241300-
...EAST CENTRAL MISSOURI...

CITY           SKY/WX    TMP DP  RH WIND       PRES   REMARKS
ST LOUIS INTL  MOCLDY    54  49  83 W6        30.10S
6HR MIN TEMP:  51; 6HR MAX TEMP:  60;

SPIRIT OF STL  MOCLDY    50  49  96 CALM      30.10R
6HR MIN TEMP:  47; 6HR MAX TEMP:  57;

ST CHARLES     CLOUDY    51  50  96 CALM      30.10R
6HR MIN TEMP:  47; 6HR MAX TEMP:  53;


$$
MOZ072>076-082>087-097>100-106>115-241300-
...SOUTH CENTRAL AND SOUTHEAST MISSOURI...

CITY           SKY/WX    TMP DP  RH WIND       PRES   REMARKS
CAPE GIRARDEAU CLOUDY    50  48  93 CALM      30.13S
6HR MIN TEMP:  42; 6HR MAX TEMP:  50;

FARMINGTON     CLOUDY    48  46  93 CALM      30.13S
6HR MIN TEMP:  45; 6HR MAX TEMP:  50;

POPLAR BLUFF   CLOUDY    50  46  86 CALM      30.13S
6HR MIN TEMP:  45; 6HR MAX TEMP:  50;

WEST PLAINS    MOCLDY    44  42  93 CALM      30.14R
6HR MIN TEMP:  43; 6HR MAX TEMP:  53;


$$



USA.gov is the U.S. government's official web portal to all federal, state and local government web resources and services.